User: anonymous   Login
Location: Unspecified
(0.0000°N, 0.0000°E)
Time: 14:00:27
(UTC+00:00)
Language:

APRIZESAT 3 - Orbit

View from above orbital plane
View from above orbital plane
View from above satellite
View from above satellite

Ground track
Ground track

The orbit data is extracted from the following two-line orbital elements,

1 35686U 09041F   18051.09863793  .00000079  00000-0  15510-4 0  9994
2 35686  98.2784  66.1357 0071867 288.5474  70.7942 14.87177250464031
Epoch (UTC): 20 February 2018 02:22:02
Eccentricity: 0.0071867
inclination: 98.2784°
perigee height: 556 km
apogee height: 657 km
right ascension of ascending node: 66.1357°
argument of perigee: 288.5474°
revolutions per day: 14.87177250
mean anomaly at epoch: 70.7942°
orbit number at epoch: 46403

The dashed part of the orbit path shows where the satellite is in the earth's shadow,  

DLR